Tracking 25934 objects as of 10-Aug-2022
HD Live streaming from Space Station
objects crossing your sky now

BREEZE-M R/B

Track BREEZE-M R/B now!


NORAD ID: 38099
Int'l Code: 2012-011B
Perigee: 2,365.9 km
Apogee: 63,304.1 km
Inclination: 30.4 °
Period: 1,287.6 minutes
Semi major axis: 39206 km
RCS: 1.5849 m2 (large)
Launch date: March 25, 2012
Source: Commonwealth of Independent States (former USSR) (CIS)
Launch site: TYURATAM MISSILE AND SPACE COMPLEX (TTMTR)

Note: This is a ROCKET BODY
aabbcc
Your satellite tracking list
Your tracking list is empty




NASA's NSSDC Master Catalog

Two Line Element Set (TLE):
1 38099U 12011B   22222.29865888 -.00000146  00000-0  00000-0 0  9990
2 38099  30.3730 322.9763 7771537 114.9503 340.0621  1.11833942 42238
Source of the keplerian elements: AFSPC